Theta_e
317 322 326 327 322 319 325 329 328 327 338 340 341 342 344 350 356 357 358 356 353 340 339 340 344 338 334 332 327 329 325 323 325 325 325 325 325 325 328 323 323 326 328 329 330 330 327 327 326
320 323 326 324 321 323 324 322 325 323 338 346 347 346 342 348 353 353 355 356 347 340 337 336 341 337 335 333 328 329 325 323 325 324 323 323 323 327 325 323 324 326 328 329 328 329 327 322 321
321 324 324 318 317 324 324 323 322 323 339 334 339 339 341 347 351 351 351 357 353 342 338 336 337 336 335 333 329 327 329 324 325 324 323 323 324 326 325 324 325 326 327 327 326 326 327 323 321
322 324 322 320 323 322 324 322 321 322 326 334 338 337 340 342 349 355 355 357 356 344 338 338 335 336 336 335 332 327 330 328 325 324 322 323 324 326 325 324 325 325 325 325 326 324 325 323 322
322 323 318 319 321 322 321 321 322 322 328 335 336 337 340 346 350 354 355 357 358 354 343 340 336 336 336 335 334 329 327 331 329 325 323 323 323 325 326 327 328 327 327 327 326 324 322 323 322
321 320 321 322 322 321 320 321 321 320 323 331 335 330 332 351 349 355 356 357 359 357 354 344 340 335 335 335 334 332 328 327 331 330 325 323 323 325 326 329 329 329 329 328 326 324 322 322 322
316 314 320 321 322 322 321 321 320 319 321 322 330 323 329 324 323 327 346 358 359 358 351 348 343 339 335 335 334 334 330 328 328 330 331 326 323 323 325 327 330 330 329 328 327 326 323 322 322
319 313 319 317 319 321 320 320 320 320 320 322 324 323 324 323 322 326 336 350 360 359 357 348 344 343 339 337 335 334 334 331 330 329 330 332 327 325 323 325 327 329 329 329 327 327 324 323 322
318 314 316 318 320 320 319 318 320 320 320 319 320 319 321 323 321 324 336 349 358 358 360 358 352 345 342 339 337 335 334 334 332 331 329 329 330 328 326 324 325 327 329 328 328 326 325 323 323
315 311 315 316 317 317 318 318 318 319 318 319 319 318 319 320 322 321 321 322 325 329 342 359 358 352 348 343 338 336 335 333 333 331 329 327 325 327 329 328 326 325 327 329 328 327 326 325 323
313 313 313 316 318 318 318 318 319 317 317 318 318 318 318 318 319 320 320 319 319 320 340 341 359 358 353 348 341 338 337 335 334 333 332 329 328 325 326 328 328 329 326 325 328 327 327 326 325
315 315 316 317 318 317 317 318 317 317 318 318 318 318 318 318 318 318 319 319 319 319 320 327 356 360 358 354 345 341 338 337 336 334 333 332 331 329 327 323 325 328 329 328 324 326 327 327 326
314 315 316 317 317 317 317 317 316 317 318 318 318 319 319 319 318 318 318 318 318 318 319 323 334 343 355 355 352 344 342 341 339 337 336 335 335 334 332 329 325 324 326 328 328 326 324 325 326
316 316 316 317 317 316 316 316 317 319 318 318 319 319 319 319 319 319 319 319 319 319 320 324 330 346 350 350 354 350 348 348 347 347 346 345 344 342 340 334 330 327 324 322 323 327 327 325 325
316 315 312 314 314 315 315 315 315 319 317 318 319 320 320 320 320 320 320 320 319 319 319 319 320 331 353 354 352 352 354 353 350 351 348 348 349 348 345 342 335 331 329 327 326 329 331 340 343
313 311 313 313 313 316 314 314 314 317 317 318 318 319 318 319 319 319 320 320 320 319 319 320 319 323 330 334 337 331 327 336 343 346 346 344 346 344 346 345 343 341 335 333 332 335 335 337 344
309 314 314 312 311 314 315 315 314 318 319 319 319 319 319 320 320 320 320 320 320 319 319 319 321 322 324 324 324 324 330 330 333 333 332 326 324 321 332 341 345 345 343 341 336 338 341 340 345
313 313 313 313 312 314 314 313 313 318 317 318 318 319 319 319 320 320 320 321 320 319 319 319 320 322 323 324 326 327 325 323 321 320 320 320 320 321 320 325 336 340 338 342 342 339 341 343 343
313 313 313 313 314 315 315 313 312 314 315 315 317 319 318 320 321 322 322 322 321 319 319 319 320 322 322 322 322 322 321 321 320 320 320 320 320 321 321 321 323 339 341 338 341 342 341 344 343
315 315 315 314 315 316 313 314 313 314 316 316 316 317 317 322 322 322 322 322 323 323 323 323 323 323 322 322 321 321 321 321 321 320 320 319 318 318 321 325 328 324 332 337 342 343 342 342 343
316 315 315 315 315 314 314 313 313 316 318 318 318 319 321 321 322 322 322 322 322 321 321 321 321 321 321 321 321 322 321 321 321 320 319 318 317 318 320 322 327 330 329 335 339 342 342 340 340
317 315 315 315 314 313 313 314 313 315 318 316 318 319 320 321 321 321 321 321 321 322 322 323 322 321 321 320 320 320 320 320 319 318 318 317 316 316 317 324 325 331 329 333 332 337 341 342 342
316 316 315 315 315 314 313 313 312 318 321 319 317 318 318 319 319 319 320 322 323 323 323 322 321 320 320 320 320 319 319 319 318 318 318 317 316 315 315 321 327 330 333 332 333 332 332 336 338
314 314 311 309 309 313 313 314 311 319 320 320 317 318 318 317 317 317 317 317 318 318 318 318 318 318 318 317 316 316 316 318 319 318 317 316 314 315 315 315 328 330 332 333 330 333 335 332 327
312 311 311 309 313 314 313 314 311 316 319 318 317 318 318 318 319 318 318 318 318 318 318 317 316 315 315 315 314 313 314 314 315 318 318 318 315 315 315 314 315 330 329 330 331 331 334 336 334
314 312 311 316 316 316 314 317 314 318 319 319 318 319 319 319 319 319 319 317 317 317 316 316 316 316 315 315 313 312 312 313 313 314 315 317 318 318 315 315 318 324 331 332 332 327 326 327 329
315 314 312 315 314 315 314 314 318 319 317 318 318 319 319 318 318 317 316 316 315 315 315 315 315 315 314 313 312 312 312 312 313 313 313 313 315 316 316 316 318 320 327 331 330 332 331 330 330
314 313 313 310 317 318 316 315 319 320 318 316 318 318 317 318 319 318 315 314 313 313 313 313 313 312 312 311 311 311 311 311 311 311 312 313 313 314 315 317 319 318 320 329 332 329 328 331 330
310 311 311 311 311 315 317 317 312 314 315 316 314 315 315 318 317 314 313 313 313 313 313 312 311 311 311 311 310 310 311 310 310 311 312 313 314 313 313 314 316 317 317 325 331 333 331 331 328
312 313 310 307 313 309 309 316 314 313 312 313 312 313 316 315 313 313 313 313 313 312 311 310 310 310 309 309 309 309 310 310 310 310 312 313 313 313 313 313 315 316 317 322 331 331 328 328 329
Wind_Speed
7 9 5 3 4 5 4 3 2 10 7 1 16 5 6 1 2 3 7 11 9 22 25 23 21 19 16 15 14 15 14 17 17 17 17 17 16 16 15 16 17 16 14 12 12 13 12 12 12
7 8 1 3 4 3 5 5 6 6 3 26 21 14 4 2 4 7 7 11 11 23 22 21 21 19 17 15 14 15 14 17 17 16 17 17 17 17 16 16 16 15 14 12 12 12 12 12 13
8 6 2 4 3 2 4 5 7 1 13 6 5 7 4 3 4 2 5 10 12 19 19 20 20 19 17 15 14 14 14 15 16 16 16 17 17 16 16 16 16 15 13 12 11 11 12 12 13
6 2 4 4 2 4 4 8 11 1 7 3 8 5 5 5 3 3 7 10 11 15 18 18 19 19 17 16 15 14 15 14 15 14 15 16 16 16 16 16 15 14 13 12 11 11 12 13 15
5 3 3 3 3 5 5 11 12 6 6 6 4 2 5 4 4 6 7 8 8 12 16 18 18 18 17 17 16 15 15 15 14 14 15 15 16 16 16 15 15 15 14 13 11 11 12 14 16
2 3 4 1 2 6 6 13 8 10 11 8 11 5 3 5 1 3 5 6 6 2 10 16 17 17 17 17 16 15 15 15 14 14 14 15 16 16 16 15 14 14 14 12 11 11 12 14 16
4 4 3 2 1 3 3 9 4 5 5 5 6 3 2 7 5 6 4 7 9 7 11 17 19 17 17 17 17 16 15 15 14 14 13 14 15 15 15 14 14 13 13 12 12 12 12 14 16
2 4 2 4 2 3 4 4 7 12 5 7 4 2 1 7 4 5 5 7 12 12 11 15 19 21 19 18 17 16 16 15 15 14 13 14 14 15 16 15 14 13 12 12 13 12 12 14 16
2 4 4 4 5 1 6 5 6 4 6 12 14 15 8 1 6 6 8 8 12 13 15 16 15 20 20 19 18 18 18 16 16 15 14 15 15 15 17 17 17 16 15 14 14 13 13 14 16
4 3 7 5 5 1 4 2 4 4 8 2 2 9 8 5 3 6 7 8 4 2 12 20 19 18 17 19 20 20 19 19 19 17 17 16 16 16 17 18 19 19 18 17 16 16 15 16 17
4 5 5 6 8 3 3 2 2 1 3 4 10 14 10 7 5 6 4 2 3 4 5 11 23 20 19 20 21 21 21 22 21 19 18 17 17 18 20 20 21 21 21 21 20 20 19 19 19
2 9 8 10 9 1 3 1 3 5 7 9 12 11 13 12 6 5 9 11 10 5 3 3 8 20 20 19 22 20 21 21 20 19 18 18 19 20 21 23 23 24 24 24 24 24 23 22 21
3 3 5 8 9 7 5 4 4 10 13 9 12 14 15 11 8 5 7 12 9 16 6 5 8 10 13 13 16 18 17 16 17 17 17 19 20 22 24 25 25 26 26 27 27 26 26 26 25
4 5 8 8 10 9 6 3 2 14 12 14 13 10 9 8 8 11 13 13 14 7 6 4 8 12 13 12 12 13 11 12 13 15 16 18 22 23 25 27 28 28 28 28 28 28 27 27 28
4 4 6 3 4 3 4 0 6 12 14 17 14 11 9 10 11 13 13 12 12 11 9 7 3 6 13 14 12 11 11 11 12 15 22 21 22 24 24 25 28 29 31 31 29 27 26 26 26
4 5 4 5 9 5 3 6 7 11 16 17 17 17 16 17 18 18 18 17 13 15 15 6 6 7 10 10 9 9 10 11 12 14 15 19 22 24 28 30 30 28 31 32 32 29 28 28 27
7 1 1 8 8 5 4 5 7 18 16 24 21 20 19 20 19 15 17 21 20 19 16 13 10 11 11 11 10 11 9 10 12 12 10 11 13 18 23 29 29 34 33 31 34 33 33 31 29
2 1 3 3 6 7 3 6 9 24 21 24 24 20 18 18 18 15 17 16 22 23 18 12 10 15 15 14 12 10 7 5 6 9 12 15 18 19 21 25 28 28 25 36 36 39 36 36 32
2 1 1 4 2 4 4 5 11 16 11 16 16 15 15 4 0 4 6 13 16 25 23 16 13 16 13 11 10 9 10 12 15 19 24 27 29 29 30 28 28 28 32 33 35 36 41 40 36
2 2 2 5 5 3 6 7 6 6 10 12 9 2 11 16 17 16 16 13 10 12 10 10 8 7 4 3 7 10 15 20 22 24 26 28 30 33 33 26 25 28 30 32 34 41 47 43 39
1 3 2 5 4 2 5 6 7 4 11 19 25 24 24 22 22 21 19 18 16 14 10 7 4 5 8 10 13 15 17 18 20 21 21 22 25 26 27 27 24 24 28 28 31 32 39 42 47
1 4 0 4 5 2 5 4 6 3 5 7 19 23 24 23 21 18 16 15 12 12 10 9 9 8 7 7 9 11 14 18 21 24 23 24 25 25 25 25 24 23 26 27 25 30 35 37 44
4 3 4 2 2 3 4 3 7 2 1 3 7 18 19 19 18 18 16 14 13 10 8 7 5 2 1 4 7 10 13 15 20 22 24 26 25 26 27 23 20 19 22 29 29 25 30 35 34
3 4 6 4 3 1 5 5 5 4 5 2 3 9 15 15 15 13 11 9 9 6 3 0 2 6 9 12 16 19 21 21 21 21 21 24 29 29 28 26 22 17 17 23 29 29 30 30 35
7 6 4 4 3 5 4 1 8 6 6 7 9 10 10 8 6 3 4 6 8 9 11 13 14 15 17 21 27 28 28 27 27 27 28 26 23 23 27 29 27 24 21 23 24 30 31 33 33
2 5 5 4 2 4 6 6 6 7 6 5 7 6 3 2 5 5 7 7 10 13 15 17 20 24 27 32 35 37 32 30 30 30 31 28 26 23 24 23 25 25 25 24 25 27 28 25 25
1 1 3 2 1 1 5 7 6 3 5 5 10 4 2 9 7 6 6 7 10 13 17 21 24 28 33 39 43 41 37 35 36 36 36 35 26 25 24 24 25 25 25 26 23 21 21 24 25
3 3 2 3 2 5 5 6 5 7 6 6 3 4 11 15 11 9 8 8 9 12 17 21 25 32 39 39 39 39 40 39 38 37 34 36 30 25 24 22 22 26 27 25 23 19 21 22 23
3 3 3 2 5 4 3 6 6 10 9 8 8 11 21 14 10 9 9 11 15 20 24 29 34 35 33 33 36 38 37 36 35 32 31 32 28 24 26 26 23 26 28 27 21 17 18 23 23
3 4 5 4 5 3 3 12 6 4 6 11 12 20 9 10 9 8 12 18 22 27 30 32 33 34 33 32 34 36 39 39 37 33 27 28 25 21 24 27 25 24 25 27 23 18 17 20 20
Wind_Direction
351 330 337 113 42 51 289 293 268 353 316 321 132 159 171 71 180 174 137 171 177 180 175 175 175 178 177 175 168 160 156 159 161 162 164 165 165 164 163 161 159 159 158 153 151 153 144 148 148
339 330 139 99 80 12 294 275 329 351 302 110 106 119 82 75 71 132 138 152 170 176 174 175 178 181 180 178 174 166 160 161 163 164 165 166 166 166 166 165 166 168 167 161 155 152 152 154 153
328 340 135 93 110 148 282 285 301 286 219 316 120 102 94 99 128 81 145 152 151 179 177 178 181 184 184 182 179 173 167 165 167 168 170 169 171 170 169 171 174 177 177 172 164 162 161 164 163
336 344 71 87 206 258 228 287 291 229 204 293 111 56 64 86 40 70 130 149 148 173 183 183 184 188 187 187 185 180 176 172 172 173 175 176 177 176 175 177 180 182 183 183 177 172 171 173 174
341 24 57 81 266 276 273 309 348 61 91 12 28 58 72 99 111 74 108 137 145 174 187 189 190 194 193 193 191 187 185 183 180 180 181 184 185 183 183 184 185 184 184 184 185 183 181 182 184
23 48 28 141 233 277 312 355 6 59 56 63 74 66 60 99 157 138 137 136 151 159 190 196 199 201 201 200 198 196 193 193 192 190 190 192 194 193 192 192 191 191 191 191 191 190 190 190 191
104 81 233 228 228 314 356 350 37 26 52 40 122 84 140 140 91 88 147 192 186 198 202 199 205 206 208 207 205 204 202 201 203 201 200 201 203 205 206 205 203 203 204 202 201 201 199 198 198
60 89 255 254 127 251 328 16 35 33 39 67 69 122 222 87 81 116 153 208 208 211 220 212 212 207 210 211 210 211 212 211 210 213 213 212 212 213 217 219 218 219 220 218 214 213 211 208 206
124 72 241 261 166 203 332 35 8 3 38 69 84 51 17 262 2 101 142 182 215 233 232 226 221 222 215 215 214 214 217 220 221 220 222 225 226 225 225 227 228 230 232 232 228 226 225 221 218
120 140 225 229 158 121 298 334 334 359 356 348 13 26 22 33 27 62 111 106 85 268 251 234 230 223 226 228 222 220 222 225 228 231 234 237 237 238 239 238 237 237 237 238 238 237 236 234 229
172 201 223 262 264 285 255 263 294 41 330 293 328 322 335 328 308 284 326 96 34 353 308 249 231 231 230 231 228 231 227 229 230 235 240 247 251 250 248 246 244 246 245 243 242 241 241 242 240
249 250 245 280 297 257 209 263 308 259 257 300 298 304 303 301 274 274 277 288 310 332 320 284 239 236 240 236 234 236 237 246 245 247 247 252 258 262 266 261 255 251 251 252 250 248 248 249 249
185 289 309 267 259 261 210 207 241 265 279 285 291 288 279 279 264 273 294 291 282 288 304 232 220 230 242 242 249 245 254 260 261 260 263 266 268 270 271 269 265 262 260 256 256 255 255 255 255
290 272 281 288 263 275 202 227 159 279 283 292 297 293 259 261 268 282 292 295 293 267 295 220 217 215 222 227 249 239 254 262 268 268 274 278 283 283 281 275 271 267 266 266 262 258 258 261 260
283 321 334 17 351 321 189 164 216 266 308 305 301 280 250 238 257 265 279 279 282 276 278 271 244 230 216 219 228 240 259 268 276 280 288 290 289 280 281 277 271 271 270 268 264 260 257 259 264
28 53 25 294 13 343 121 276 285 339 343 328 305 286 290 272 267 272 271 268 264 258 265 240 246 220 221 225 231 251 266 272 279 281 290 299 297 301 291 271 274 277 273 271 266 263 259 258 267
7 78 319 324 28 355 53 286 294 335 328 315 310 308 301 301 297 284 278 263 255 244 250 253 214 209 212 220 230 239 245 264 276 280 299 303 304 307 302 294 283 279 275 272 270 266 264 264 262
228 79 296 276 336 3 359 274 304 295 292 286 289 293 296 307 301 272 268 265 249 238 245 244 213 208 209 209 208 209 221 231 253 273 282 292 303 305 298 292 287 283 291 273 271 268 266 265 267
163 127 314 283 304 341 242 267 263 278 290 287 273 268 296 352 195 203 252 258 239 233 247 250 207 205 216 206 197 210 236 259 282 299 305 306 307 306 300 291 282 281 275 281 272 271 266 263 259
79 107 313 294 302 309 329 306 307 344 357 354 308 15 121 107 101 98 101 107 119 136 148 140 138 141 178 264 290 295 297 303 307 306 306 306 301 296 296 293 286 270 273 275 275 263 262 263 261
71 140 244 229 304 325 332 341 333 360 20 52 66 80 95 97 91 89 93 93 95 93 87 91 68 12 346 335 327 320 315 311 312 312 313 318 319 317 309 287 287 280 274 278 271 273 261 264 262
201 202 211 338 37 277 44 283 305 347 22 27 61 78 84 89 90 88 88 90 92 92 88 74 66 45 24 360 336 321 320 319 313 312 313 318 317 317 316 304 288 286 272 273 280 279 266 264 259
215 18 2 322 264 27 349 84 270 283 234 332 24 84 87 91 92 90 85 90 91 92 88 90 85 85 16 321 311 310 307 310 311 310 307 310 314 320 327 315 292 289 273 269 285 280 274 269 263
53 20 37 48 80 1 216 135 274 225 182 175 126 101 94 89 84 83 83 85 87 97 123 142 295 307 309 313 314 310 306 296 289 290 296 303 308 311 317 325 305 285 291 279 279 280 280 272 275
60 50 339 348 6 223 238 102 241 242 227 175 166 141 117 109 107 81 14 354 338 327 320 314 315 316 315 316 315 315 307 299 292 289 291 291 294 301 308 313 315 292 282 284 282 282 280 279 281
7 137 152 261 236 273 329 253 264 210 184 173 177 149 122 39 336 316 313 311 311 306 303 305 305 312 316 319 318 316 311 301 292 291 291 291 287 291 300 301 304 298 291 283 285 284 282 283 281
229 250 200 155 22 64 237 289 324 236 287 204 197 195 280 313 279 273 270 276 284 295 302 306 310 315 317 313 310 308 309 307 301 294 285 288 287 285 289 293 300 298 296 289 280 280 277 278 280
165 173 18 9 280 259 276 269 235 205 232 232 243 232 303 282 260 261 248 260 285 303 301 303 306 310 313 307 303 302 304 306 302 296 290 285 283 282 282 284 294 299 292 294 285 279 274 270 273
330 330 56 166 157 219 274 254 220 211 203 213 246 271 302 268 249 225 245 275 294 305 312 313 314 312 305 299 300 299 299 302 308 298 289 289 283 273 276 279 284 296 296 285 290 274 272 270 276
158 228 147 132 271 228 187 264 253 211 196 215 246 297 262 225 223 252 290 301 304 306 306 306 305 302 298 296 297 296 297 299 299 299 294 291 289 267 273 276 280 291 296 283 290 269 281 280 274